Dansville, NY

11:26 PM EDT on May 20, 2018 (GMT -0400)
Dansville Municipal

Weather History for KDSV - November, 2011

Change the Weather History Date:

Thursday, November 3, 2011

  Actual Average Record
Temperature  
Mean Temperature 55 °F -  
Max Temperature 64 °F 58 °F 80 °F (1982)
Min Temperature 45 °F 37 °F 21 °F (1965)
Degree Days  
Heating Degree Days 10    
Growing Degree Days 5 (Base 50)    
Moisture  
Dew Point 41 °F    
Average Humidity 65    
Maximum Humidity 90    
Minimum Humidity 38    
Precipitation  
Precipitation 0.00 in - - ()
Sea Level Pressure  
Sea Level Pressure 30.05 in    
Wind  
Wind Speed 8 mph (NW)    
Max Wind Speed 14 mph    
Max Gust Speed -    
Visibility 10 miles    
Events      
Averages and records for this station are not official NWS values.
T = Trace of Precipitation, MM = Missing Value Source: NWS Daily Summary

Daily Weather History Graph

Daily Weather History Graph

Search for Another Location

Airport or City:

Astronomy

Nov. 03, 2011 Rise Set
Actual Time 7:46 AM EDT 6:01 PM EDT
Civil Twilight 7:17 AM EDT 6:30 PM EDT
Nautical Twilight 6:43 AM EDT 7:04 PM EDT
Astronomical Twilight 6:11 AM EDT 7:37 PM EDT
Moon 2:32 PM EDT (11/3) 12:48 AM EDT (11/3)
Length of Visible Light 11h 13m
Length of Day
10h 14m
First Quarter, 60% of the Moon is Illuminated
Nov 3
First Quarter
Nov 10
Full
Nov 18
Last Quarter
Nov 25
New
Dec 2
First Quarter

Hourly Weather History & Observations

Time (EDT) Temp. Windchill Dew Point Humidity Pressure Visibility Wind Dir Wind Speed Gust Speed Precip Events Conditions
12:54 AM 50.0 °F - 37.0 °F 61% 30.14 in 10.0 mi SE 9.2 mph - N/A   Clear
1:54 AM 46.9 °F - 37.0 °F 68% 30.13 in 10.0 mi South 3.5 mph - N/A   Clear
2:54 AM 46.9 °F - 37.9 °F 71% 30.12 in 10.0 mi SSE 5.8 mph - N/A   Clear
3:54 AM 46.9 °F - 37.9 °F 71% 30.11 in 10.0 mi ESE 6.9 mph - N/A   Clear
5:54 AM 48.0 °F - 37.9 °F 68% 30.09 in 10.0 mi SE 5.8 mph - N/A   Clear
6:54 AM 48.0 °F - 37.9 °F 68% 30.07 in 10.0 mi South 6.9 mph - N/A   Clear
8:54 AM 50.0 °F - 37.9 °F 63% 30.07 in 10.0 mi SSE 5.8 mph - N/A   Clear
9:54 AM 55.0 °F - 36.0 °F 49% 30.06 in 10.0 mi ESE 4.6 mph - N/A   Clear
10:54 AM 57.9 °F - 39.0 °F 49% 30.04 in 10.0 mi East 6.9 mph - N/A   Clear
11:54 AM 63.0 °F - 37.9 °F 40% 30.02 in 10.0 mi SSW 6.9 mph - N/A   Clear
12:54 PM 64.0 °F - 37.9 °F 38% 30.00 in 10.0 mi Variable 3.5 mph - N/A   Unknown
1:54 PM 63.0 °F - 39.0 °F 41% 30.00 in 10.0 mi WNW 9.2 mph - N/A   Unknown
2:54 PM 62.1 °F - 41.0 °F 46% 29.97 in 10.0 mi NW 6.9 mph - N/A   Unknown
3:54 PM 61.0 °F - 42.1 °F 50% 29.97 in 10.0 mi NNW 10.4 mph - N/A   Unknown
4:54 PM 57.9 °F - 44.1 °F 60% 29.99 in 10.0 mi NNW 9.2 mph - N/A   Mostly Cloudy
5:54 PM 53.1 °F - 45.0 °F 74% 30.01 in 10.0 mi NW 13.8 mph - N/A   Partly Cloudy
6:10 PM 53.6 °F - 44.6 °F 72% 29.99 in 10.0 mi NNW 10.4 mph - N/A   Mostly Cloudy
6:54 PM 53.1 °F - 45.0 °F 74% 30.02 in 10.0 mi NNW 8.1 mph - N/A   Overcast
7:54 PM 52.0 °F - 46.0 °F 80% 30.03 in 10.0 mi NNW 10.4 mph - N/A   Overcast
8:54 PM 50.0 °F - 44.1 °F 80% 30.06 in 10.0 mi NW 4.6 mph - N/A   Overcast
10:26 PM 46.4 °F 41.1 °F 42.8 °F 87% 30.06 in 10.0 mi NNW 11.5 mph - N/A   Overcast
10:54 PM 46.0 °F 40.2 °F 43.0 °F 89% 30.09 in 10.0 mi NW 12.7 mph - N/A   Overcast
11:54 PM 45.0 °F 38.9 °F 42.1 °F 90% 30.09 in 10.0 mi NW 12.7 mph - 0.00 in   Overcast